Find Starlink 38269

NORAD ID: 100392 Int'l Des: 2026-190 Owner: SPXS Country: US Constellation: starlink operational

当前视图

正在加载3D地球...

About Starlink 38269

Starlink 38269 (NORAD 100392) is a starlink constellation satellite launched Aug 19, 2026 by SPXS of US. with a mass of 575.00 kg.

即将过境

Passes for default location (London). Set your location on the main map for personalized predictions.

高度历史

Loading altitude history...

两行轨道根数

1 A0392U 26190X 26249.53889187 .00124281 00000-0 82150-3 0 9991
2 A0392 97.2843 103.1429 0001395 100.6667 259.4756 15.75205049 4171
Epoch: Sep 6, 2026 • Age: 9 hours

当前状态

高度 372.9 km
远地点 / 近地点 N/A
速度 7.68 km/s
星下点 -80.99°S, 80.88°W
发射日期 Aug 19, 2026
运行时间 18 days
类型 internet

技术详情

分类 Payload
质量 575.00 kg
干质量 530.00 kg
总质量 575.00 kg
长度 0.30 m
直径 4.10 m
跨度 29.00 m
形状 Box + pan
制造商 SPXS
平台类型 Starlink V2MO
阶段状态 In Orbit
所有者/国家 SPXS/US

Most Searched